Time,TemperatureF,DewpointF,PressureIn,WindDirection,WindDirectionDegrees,WindSpeedMPH,WindSpeedGustMPH,Humidity,HourlyPrecipIn,Conditions,Clouds,dailyrainin,SoftwareType,DateUTC
2013-05-27 00:00:00,69.1,54.2,30.20,NNW,338,0.0,1.0,59,0.00,,,0.00,WeatherCatV1.02B3,2013-05-27 04:00:00,
2013-05-27 00:05:00,68.2,51.9,30.20,NNW,338,0.0,0.0,56,0.00,,,0.00,WeatherCatV1.02B3,2013-05-27 04:05:00,
2013-05-27 00:10:00,68.2,51.9,30.20,NNW,338,0.0,0.0,56,0.00,,,0.00,WeatherCatV1.02B3,2013-05-27 04:10:00,
2013-05-27 00:15:00,68.2,51.9,30.20,NNW,338,0.0,0.0,56,0.00,,,0.00,WeatherCatV1.02B3,2013-05-27 04:15:00,
2013-05-27 00:20:00,68.2,51.9,30.20,NNW,338,0.0,0.0,56,0.00,,,0.00,WeatherCatV1.02B3,2013-05-27 04:20:00,
2013-05-27 00:25:00,68.2,51.9,30.20,NNW,338,0.0,0.0,56,0.00,,,0.00,WeatherCatV1.02B3,2013-05-27 04:25:00,
2013-05-27 00:30:00,68.2,51.9,30.20,NNW,338,0.0,0.0,56,0.00,,,0.00,WeatherCatV1.02B3,2013-05-27 04:30:00,
2013-05-27 00:35:00,67.4,50.7,30.20,NNW,338,0.0,0.0,55,0.00,,,0.00,WeatherCatV1.02B3,2013-05-27 04:35:00,
2013-05-27 00:40:00,67.4,50.7,30.20,NNW,338,0.0,0.0,55,0.00,,,0.00,WeatherCatV1.02B3,2013-05-27 04:40:00,
2013-05-27 00:45:00,67.4,50.7,30.20,NNW,338,0.0,0.0,55,0.00,,,0.00,WeatherCatV1.02B3,2013-05-27 04:45:00,
2013-05-27 00:50:00,67.4,50.7,30.20,NNW,338,0.0,0.0,55,0.00,,,0.00,WeatherCatV1.02B3,2013-05-27 04:50:00,
2013-05-27 00:55:00,67.4,50.7,30.20,NNW,338,0.0,0.0,55,0.00,,,0.00,WeatherCatV1.02B3,2013-05-27 04:55:00,
2013-05-27 01:00:00,67.4,50.7,30.20,NNW,338,0.0,0.0,55,0.00,,,0.00,WeatherCatV1.02B3,2013-05-27 05:00:00,
2013-05-27 01:05:00,66.6,47.9,30.20,NNW,338,0.0,1.0,51,0.00,,,0.00,WeatherCatV1.02B3,2013-05-27 05:05:00,
2013-05-27 01:10:00,66.6,47.9,30.20,NNW,338,0.0,1.0,51,0.00,,,0.00,WeatherCatV1.02B3,2013-05-27 05:10:00,
2013-05-27 01:15:00,66.6,47.9,30.20,NNW,338,0.0,1.0,51,0.00,,,0.00,WeatherCatV1.02B3,2013-05-27 05:15:00,
2013-05-27 01:20:00,66.6,47.9,30.20,NNW,338,0.0,1.0,51,0.00,,,0.00,WeatherCatV1.02B3,2013-05-27 05:20:00,
2013-05-27 01:25:00,66.6,47.9,30.20,NNW,338,0.0,1.0,51,0.00,,,0.00,WeatherCatV1.02B3,2013-05-27 05:25:00,
2013-05-27 01:30:00,66.3,44.3,30.20,NNW,338,0.0,0.0,45,0.00,,,0.00,WeatherCatV1.02B3,2013-05-27 05:30:00,
2013-05-27 01:35:00,66.3,44.3,30.20,NNW,338,0.0,0.0,45,0.00,,,0.00,WeatherCatV1.02B3,2013-05-27 05:35:00,
2013-05-27 01:40:00,66.3,44.3,30.20,NNW,338,0.0,0.0,45,0.00,,,0.00,WeatherCatV1.02B3,2013-05-27 05:40:00,
2013-05-27 01:45:00,66.3,44.3,30.20,NNW,338,0.0,0.0,45,0.00,,,0.00,WeatherCatV1.02B3,2013-05-27 05:45:00,
2013-05-27 01:50:00,66.3,44.3,30.20,NNW,338,0.0,0.0,45,0.00,,,0.00,WeatherCatV1.02B3,2013-05-27 05:50:00,
2013-05-27 01:55:00,66.3,44.3,30.20,NNW,338,0.0,0.0,45,0.00,,,0.00,WeatherCatV1.02B3,2013-05-27 05:55:00,
2013-05-27 02:00:00,66.3,44.3,30.20,NNW,338,0.0,0.0,45,0.00,,,0.00,WeatherCatV1.02B3,2013-05-27 06:00:00,
2013-05-27 02:05:00,66.2,40.5,30.19,NNW,338,0.0,0.0,39,0.00,,,0.00,WeatherCatV1.02B3,2013-05-27 06:05:00,
2013-05-27 02:10:00,66.2,40.5,30.19,NNW,338,0.0,0.0,39,0.00,,,0.00,WeatherCatV1.02B3,2013-05-27 06:10:00,
2013-05-27 02:15:00,66.2,40.5,30.19,NNW,338,0.0,0.0,39,0.00,,,0.00,WeatherCatV1.02B3,2013-05-27 06:15:00,
2013-05-27 02:20:00,66.2,40.5,30.19,NNW,338,0.0,0.0,39,0.00,,,0.00,WeatherCatV1.02B3,2013-05-27 06:20:00,
2013-05-27 02:25:00,66.2,40.5,30.19,NNW,338,0.0,0.0,39,0.00,,,0.00,WeatherCatV1.02B3,2013-05-27 06:25:00,
2013-05-27 02:30:00,66.2,40.5,30.19,NNW,338,0.0,0.0,39,0.00,,,0.00,WeatherCatV1.02B3,2013-05-27 06:30:00,
2013-05-27 02:35:00,65.9,38.9,30.19,NNW,338,0.0,0.0,37,0.00,,,0.00,WeatherCatV1.02B3,2013-05-27 06:35:00,
2013-05-27 02:40:00,65.9,38.9,30.19,NNW,338,0.0,0.0,37,0.00,,,0.00,WeatherCatV1.02B3,2013-05-27 06:40:00,
2013-05-27 02:45:00,65.9,38.9,30.19,NNW,338,0.0,0.0,37,0.00,,,0.00,WeatherCatV1.02B3,2013-05-27 06:45:00,
2013-05-27 02:50:00,65.9,38.9,30.19,NNW,338,0.0,0.0,37,0.00,,,0.00,WeatherCatV1.02B3,2013-05-27 06:50:00,
2013-05-27 02:55:00,65.9,38.9,30.19,NNW,338,0.0,0.0,37,0.00,,,0.00,WeatherCatV1.02B3,2013-05-27 06:55:00,
2013-05-27 03:00:00,65.9,38.9,30.19,NNW,338,0.0,0.0,37,0.00,,,0.00,WeatherCatV1.02B3,2013-05-27 07:00:00,
2013-05-27 03:05:00,65.4,38.4,30.18,NNW,338,0.0,0.0,37,0.00,,,0.00,WeatherCatV1.02B3,2013-05-27 07:05:00,
2013-05-27 03:10:00,65.4,38.4,30.18,NNW,338,0.0,0.0,37,0.00,,,0.00,WeatherCatV1.02B3,2013-05-27 07:10:00,
2013-05-27 03:15:00,65.4,38.4,30.18,NNW,338,0.0,0.0,37,0.00,,,0.00,WeatherCatV1.02B3,2013-05-27 07:15:00,
2013-05-27 03:20:00,65.4,38.4,30.18,NNW,338,0.0,0.0,37,0.00,,,0.00,WeatherCatV1.02B3,2013-05-27 07:20:00,
2013-05-27 03:25:00,65.4,38.4,30.18,NNW,338,0.0,0.0,37,0.00,,,0.00,WeatherCatV1.02B3,2013-05-27 07:25:00,
2013-05-27 03:30:00,65.4,38.4,30.18,NNW,338,0.0,0.0,37,0.00,,,0.00,WeatherCatV1.02B3,2013-05-27 07:30:00,
2013-05-27 03:35:00,65.2,37.6,30.18,NNW,338,0.0,2.0,36,0.00,,,0.00,WeatherCatV1.02B3,2013-05-27 07:35:00,
2013-05-27 03:40:00,65.2,37.6,30.18,NNW,338,0.0,2.0,36,0.00,,,0.00,WeatherCatV1.02B3,2013-05-27 07:40:00,
2013-05-27 03:45:00,65.2,37.6,30.18,NNW,338,0.0,2.0,36,0.00,,,0.00,WeatherCatV1.02B3,2013-05-27 07:45:00,
2013-05-27 03:50:00,65.2,37.6,30.18,NNW,338,0.0,2.0,36,0.00,,,0.00,WeatherCatV1.02B3,2013-05-27 07:50:00,
2013-05-27 03:55:00,65.2,37.6,30.18,NNW,338,0.0,2.0,36,0.00,,,0.00,WeatherCatV1.02B3,2013-05-27 07:55:00,
2013-05-27 04:00:00,65.2,37.6,30.18,NNW,338,0.0,2.0,36,0.00,,,0.00,WeatherCatV1.02B3,2013-05-27 08:00:00,
2013-05-27 04:05:00,65.1,36.8,30.17,NNW,338,0.0,0.0,35,0.00,,,0.00,WeatherCatV1.02B3,2013-05-27 08:05:00,
2013-05-27 04:10:00,65.1,36.8,30.17,NNW,338,0.0,0.0,35,0.00,,,0.00,WeatherCatV1.02B3,2013-05-27 08:10:00,
2013-05-27 04:15:00,65.1,36.8,30.17,NNW,338,0.0,0.0,35,0.00,,,0.00,WeatherCatV1.02B3,2013-05-27 08:15:00,
2013-05-27 04:20:00,65.1,36.8,30.17,NNW,338,0.0,0.0,35,0.00,,,0.00,WeatherCatV1.02B3,2013-05-27 08:20:00,
2013-05-27 04:25:00,65.1,36.8,30.17,NNW,338,0.0,0.0,35,0.00,,,0.00,WeatherCatV1.02B3,2013-05-27 08:25:00,
2013-05-27 04:30:00,65.1,36.8,30.17,NNW,338,0.0,0.0,35,0.00,,,0.00,WeatherCatV1.02B3,2013-05-27 08:30:00,
2013-05-27 04:35:00,65.2,36.1,30.16,NNW,338,0.0,0.0,34,0.00,,,0.00,WeatherCatV1.02B3,2013-05-27 08:35:00,
2013-05-27 04:40:00,65.2,36.1,30.16,NNW,338,0.0,0.0,34,0.00,,,0.00,WeatherCatV1.02B3,2013-05-27 08:40:00,
2013-05-27 04:45:00,65.2,36.1,30.16,NNW,338,0.0,0.0,34,0.00,,,0.00,WeatherCatV1.02B3,2013-05-27 08:45:00,
2013-05-27 04:50:00,65.2,36.1,30.16,NNW,338,0.0,0.0,34,0.00,,,0.00,WeatherCatV1.02B3,2013-05-27 08:50:00,
2013-05-27 04:55:00,65.2,36.1,30.16,NNW,338,0.0,0.0,34,0.00,,,0.00,WeatherCatV1.02B3,2013-05-27 08:55:00,
2013-05-27 05:00:00,65.2,36.1,30.16,NNW,338,0.0,0.0,34,0.00,,,0.00,WeatherCatV1.02B3,2013-05-27 09:00:00,
2013-05-27 05:05:00,65.1,36.0,30.16,NNW,338,0.0,0.0,34,0.00,,,0.00,WeatherCatV1.02B3,2013-05-27 09:05:00,
2013-05-27 05:10:00,65.1,36.0,30.16,NNW,338,0.0,0.0,34,0.00,,,0.00,WeatherCatV1.02B3,2013-05-27 09:10:00,
2013-05-27 05:15:00,65.1,36.0,30.16,NNW,338,0.0,0.0,34,0.00,,,0.00,WeatherCatV1.02B3,2013-05-27 09:15:00,
2013-05-27 05:20:00,65.1,36.0,30.16,NNW,338,0.0,0.0,34,0.00,,,0.00,WeatherCatV1.02B3,2013-05-27 09:20:00,
2013-05-27 05:25:00,65.1,36.0,30.16,NNW,338,0.0,0.0,34,0.00,,,0.00,WeatherCatV1.02B3,2013-05-27 09:25:00,
2013-05-27 05:30:00,65.1,36.0,30.16,NNW,338,0.0,0.0,34,0.00,,,0.00,WeatherCatV1.02B3,2013-05-27 09:30:00,
2013-05-27 05:35:00,65.0,35.9,30.17,NNW,338,0.0,3.0,34,0.00,,,0.00,WeatherCatV1.02B3,2013-05-27 09:35:00,
2013-05-27 05:40:00,65.0,35.9,30.17,NNW,338,0.0,3.0,34,0.00,,,0.00,WeatherCatV1.02B3,2013-05-27 09:40:00,
2013-05-27 05:45:00,65.0,35.9,30.17,NNW,338,0.0,3.0,34,0.00,,,0.00,WeatherCatV1.02B3,2013-05-27 09:45:00,
2013-05-27 05:50:00,65.0,35.9,30.17,NNW,338,0.0,3.0,34,0.00,,,0.00,WeatherCatV1.02B3,2013-05-27 09:50:00,
2013-05-27 05:55:00,65.0,35.9,30.17,NNW,338,0.0,3.0,34,0.00,,,0.00,WeatherCatV1.02B3,2013-05-27 09:55:00,
2013-05-27 06:00:00,65.0,35.9,30.17,NNW,338,0.0,3.0,34,0.00,,,0.00,WeatherCatV1.02B3,2013-05-27 10:00:00,
2013-05-27 06:05:00,64.7,35.7,30.17,NNW,338,0.0,0.0,34,0.00,,,0.00,WeatherCatV1.02B3,2013-05-27 10:05:00,
2013-05-27 06:10:00,64.7,35.7,30.17,NNW,338,0.0,0.0,34,0.00,,,0.00,WeatherCatV1.02B3,2013-05-27 10:10:00,
2013-05-27 06:15:00,64.7,35.7,30.17,NNW,338,0.0,0.0,34,0.00,,,0.00,WeatherCatV1.02B3,2013-05-27 10:15:00,
2013-05-27 06:20:00,64.7,35.7,30.17,NNW,338,0.0,0.0,34,0.00,,,0.00,WeatherCatV1.02B3,2013-05-27 10:20:00,
2013-05-27 06:25:00,64.7,35.7,30.17,NNW,338,0.0,0.0,34,0.00,,,0.00,WeatherCatV1.02B3,2013-05-27 10:25:00,
2013-05-27 06:30:00,64.6,35.6,30.18,NNW,338,0.0,3.0,34,0.00,,,0.00,WeatherCatV1.02B3,2013-05-27 10:30:00,
2013-05-27 06:35:00,64.6,35.6,30.18,NNW,338,0.0,3.0,34,0.00,,,0.00,WeatherCatV1.02B3,2013-05-27 10:35:00,
2013-05-27 06:40:00,64.6,35.6,30.18,NNW,338,0.0,3.0,34,0.00,,,0.00,WeatherCatV1.02B3,2013-05-27 10:40:00,
2013-05-27 06:45:00,64.6,35.6,30.18,NNW,338,0.0,3.0,34,0.00,,,0.00,WeatherCatV1.02B3,2013-05-27 10:45:00,
2013-05-27 06:50:00,64.6,35.6,30.18,NNW,338,0.0,3.0,34,0.00,,,0.00,WeatherCatV1.02B3,2013-05-27 10:50:00,
2013-05-27 06:55:00,64.6,35.6,30.18,NNW,338,0.0,3.0,34,0.00,,,0.00,WeatherCatV1.02B3,2013-05-27 10:55:00,
2013-05-27 07:00:00,64.7,34.9,30.18,NNW,338,0.0,0.0,33,0.00,,,0.00,WeatherCatV1.02B3,2013-05-27 11:00:00,
2013-05-27 07:05:00,64.7,34.9,30.18,NNW,338,0.0,0.0,33,0.00,,,0.00,WeatherCatV1.02B3,2013-05-27 11:05:00,
2013-05-27 07:10:00,64.7,34.9,30.18,NNW,338,0.0,0.0,33,0.00,,,0.00,WeatherCatV1.02B3,2013-05-27 11:10:00,
2013-05-27 07:15:00,64.7,34.9,30.18,NNW,338,0.0,0.0,33,0.00,,,0.00,WeatherCatV1.02B3,2013-05-27 11:15:00,
2013-05-27 07:20:00,64.7,34.9,30.18,NNW,338,0.0,0.0,33,0.00,,,0.00,WeatherCatV1.02B3,2013-05-27 11:20:00,
2013-05-27 07:25:00,64.7,34.9,30.18,NNW,338,0.0,0.0,33,0.00,,,0.00,WeatherCatV1.02B3,2013-05-27 11:25:00,
2013-05-27 07:30:00,65.5,35.6,30.19,West,270,0.0,3.0,33,0.00,,,0.00,WeatherCatV1.02B3,2013-05-27 11:30:00,
2013-05-27 07:35:00,65.5,35.6,30.19,West,270,0.0,3.0,33,0.00,,,0.00,WeatherCatV1.02B3,2013-05-27 11:35:00,
2013-05-27 07:40:00,65.5,35.6,30.19,West,270,0.0,3.0,33,0.00,,,0.00,WeatherCatV1.02B3,2013-05-27 11:40:00,
2013-05-27 07:45:00,65.5,35.6,30.19,West,270,0.0,3.0,33,0.00,,,0.00,WeatherCatV1.02B3,2013-05-27 11:45:00,
2013-05-27 07:50:00,65.5,35.6,30.19,West,270,0.0,3.0,33,0.00,,,0.00,WeatherCatV1.02B3,2013-05-27 11:50:00,
2013-05-27 07:55:00,65.5,35.6,30.19,West,270,0.0,3.0,33,0.00,,,0.00,WeatherCatV1.02B3,2013-05-27 11:55:00,
2013-05-27 08:00:00,65.5,35.6,30.19,West,270,0.0,3.0,33,0.00,,,0.00,WeatherCatV1.02B3,2013-05-27 12:00:00,
2013-05-27 08:05:00,66.7,35.9,30.19,NW,315,2.0,6.0,32,0.00,,,0.00,WeatherCatV1.02B3,2013-05-27 12:05:00,
2013-05-27 08:10:00,66.7,35.9,30.19,NW,315,2.0,6.0,32,0.00,,,0.00,WeatherCatV1.02B3,2013-05-27 12:10:00,
2013-05-27 08:15:00,66.7,35.9,30.19,NW,315,2.0,6.0,32,0.00,,,0.00,WeatherCatV1.02B3,2013-05-27 12:15:00,
2013-05-27 08:20:00,66.7,35.9,30.19,NW,315,2.0,6.0,32,0.00,,,0.00,WeatherCatV1.02B3,2013-05-27 12:20:00,
2013-05-27 08:25:00,66.7,35.9,30.19,NW,315,2.0,6.0,32,0.00,,,0.00,WeatherCatV1.02B3,2013-05-27 12:25:00,
2013-05-27 08:30:00,68.8,37.7,30.19,NW,315,2.0,6.0,32,0.00,,,0.00,WeatherCatV1.02B3,2013-05-27 12:30:00,
2013-05-27 08:35:00,68.8,37.7,30.19,NW,315,2.0,6.0,32,0.00,,,0.00,WeatherCatV1.02B3,2013-05-27 12:35:00,
2013-05-27 08:40:00,68.8,37.7,30.19,NW,315,2.0,6.0,32,0.00,,,0.00,WeatherCatV1.02B3,2013-05-27 12:40:00,
2013-05-27 08:45:00,68.8,37.7,30.19,NW,315,2.0,6.0,32,0.00,,,0.00,WeatherCatV1.02B3,2013-05-27 12:45:00,
2013-05-27 08:50:00,68.8,37.7,30.19,NW,315,2.0,6.0,32,0.00,,,0.00,WeatherCatV1.02B3,2013-05-27 12:50:00,
2013-05-27 08:55:00,68.8,37.7,30.19,NW,315,2.0,6.0,32,0.00,,,0.00,WeatherCatV1.02B3,2013-05-27 12:55:00,
2013-05-27 09:00:00,72.2,46.5,30.19,North,0,4.0,13.0,40,0.00,,,0.00,WeatherCatV1.02B3,2013-05-27 13:00:00,
2013-05-27 09:05:00,72.2,46.5,30.19,North,0,4.0,13.0,40,0.00,,,0.00,WeatherCatV1.02B3,2013-05-27 13:05:00,
2013-05-27 09:10:00,72.2,46.5,30.19,North,0,4.0,13.0,40,0.00,,,0.00,WeatherCatV1.02B3,2013-05-27 13:10:00,
2013-05-27 09:15:00,72.2,46.5,30.19,North,0,4.0,13.0,40,0.00,,,0.00,WeatherCatV1.02B3,2013-05-27 13:15:00,
2013-05-27 09:20:00,72.2,46.5,30.19,North,0,4.0,13.0,40,0.00,,,0.00,WeatherCatV1.02B3,2013-05-27 13:20:00,
2013-05-27 09:25:00,72.2,46.5,30.19,North,0,4.0,13.0,40,0.00,,,0.00,WeatherCatV1.02B3,2013-05-27 13:25:00,
2013-05-27 09:30:00,75.1,56.8,30.19,North,0,6.0,13.0,53,0.00,,,0.00,WeatherCatV1.02B3,2013-05-27 13:30:00,
2013-05-27 09:35:00,75.1,56.8,30.19,North,0,6.0,13.0,53,0.00,,,0.00,WeatherCatV1.02B3,2013-05-27 13:35:00,
2013-05-27 09:40:00,75.1,56.8,30.19,North,0,6.0,13.0,53,0.00,,,0.00,WeatherCatV1.02B3,2013-05-27 13:40:00,
2013-05-27 09:45:00,75.1,56.8,30.19,North,0,6.0,13.0,53,0.00,,,0.00,WeatherCatV1.02B3,2013-05-27 13:45:00,
2013-05-27 09:50:00,75.1,56.8,30.19,North,0,6.0,13.0,53,0.00,,,0.00,WeatherCatV1.02B3,2013-05-27 13:50:00,
2013-05-27 09:55:00,75.1,56.8,30.19,North,0,6.0,13.0,53,0.00,,,0.00,WeatherCatV1.02B3,2013-05-27 13:55:00,
2013-05-27 10:00:00,78.7,61.1,30.20,North,0,6.0,15.0,55,0.00,,,0.00,WeatherCatV1.02B3,2013-05-27 14:00:00,
2013-05-27 10:05:00,78.7,61.1,30.20,North,0,6.0,15.0,55,0.00,,,0.00,WeatherCatV1.02B3,2013-05-27 14:05:00,
2013-05-27 10:10:00,78.7,61.1,30.20,North,0,6.0,15.0,55,0.00,,,0.00,WeatherCatV1.02B3,2013-05-27 14:10:00,
2013-05-27 10:15:00,78.7,61.1,30.20,North,0,6.0,15.0,55,0.00,,,0.00,WeatherCatV1.02B3,2013-05-27 14:15:00,
2013-05-27 10:20:00,78.7,61.1,30.20,North,0,6.0,15.0,55,0.00,,,0.00,WeatherCatV1.02B3,2013-05-27 14:20:00,
2013-05-27 10:25:00,78.7,61.1,30.20,North,0,6.0,15.0,55,0.00,,,0.00,WeatherCatV1.02B3,2013-05-27 14:25:00,
2013-05-27 10:30:00,80.1,64.0,30.20,NNW,338,7.0,16.0,58,0.00,,,0.00,WeatherCatV1.02B3,2013-05-27 14:30:00,
2013-05-27 10:35:00,80.1,64.0,30.20,NNW,338,7.0,16.0,58,0.00,,,0.00,WeatherCatV1.02B3,2013-05-27 14:35:00,
2013-05-27 10:40:00,80.1,64.0,30.20,NNW,338,7.0,16.0,58,0.00,,,0.00,WeatherCatV1.02B3,2013-05-27 14:40:00,
2013-05-27 10:45:00,80.1,64.0,30.20,NNW,338,7.0,16.0,58,0.00,,,0.00,WeatherCatV1.02B3,2013-05-27 14:45:00,
2013-05-27 10:50:00,80.1,64.0,30.20,NNW,338,7.0,16.0,58,0.00,,,0.00,WeatherCatV1.02B3,2013-05-27 14:50:00,
2013-05-27 10:55:00,80.1,64.0,30.20,NNW,338,7.0,16.0,58,0.00,,,0.00,WeatherCatV1.02B3,2013-05-27 14:55:00,
2013-05-27 11:00:00,82.1,64.8,30.20,NNW,338,7.0,16.0,56,0.00,,,0.00,WeatherCatV1.02B3,2013-05-27 15:00:00,
2013-05-27 11:05:00,82.1,64.8,30.20,NNW,338,7.0,16.0,56,0.00,,,0.00,WeatherCatV1.02B3,2013-05-27 15:05:00,
2013-05-27 11:10:00,82.1,64.8,30.20,NNW,338,7.0,16.0,56,0.00,,,0.00,WeatherCatV1.02B3,2013-05-27 15:10:00,
2013-05-27 11:15:00,82.1,64.8,30.20,NNW,338,7.0,16.0,56,0.00,,,0.00,WeatherCatV1.02B3,2013-05-27 15:15:00,
2013-05-27 11:20:00,82.1,64.8,30.20,NNW,338,7.0,16.0,56,0.00,,,0.00,WeatherCatV1.02B3,2013-05-27 15:20:00,
2013-05-27 11:25:00,82.1,64.8,30.20,NNW,338,7.0,16.0,56,0.00,,,0.00,WeatherCatV1.02B3,2013-05-27 15:25:00,
2013-05-27 11:30:00,82.1,64.8,30.20,NNW,338,7.0,16.0,56,0.00,,,0.00,WeatherCatV1.02B3,2013-05-27 15:30:00,
2013-05-27 11:35:00,83.7,64.2,30.20,North,0,7.0,15.0,52,0.00,,,0.00,WeatherCatV1.02B3,2013-05-27 15:35:00,
2013-05-27 11:40:00,83.7,64.2,30.20,North,0,7.0,15.0,52,0.00,,,0.00,WeatherCatV1.02B3,2013-05-27 15:40:00,
2013-05-27 11:45:00,83.7,64.2,30.20,North,0,7.0,15.0,52,0.00,,,0.00,WeatherCatV1.02B3,2013-05-27 15:45:00,
2013-05-27 11:50:00,83.7,64.2,30.20,North,0,7.0,15.0,52,0.00,,,0.00,WeatherCatV1.02B3,2013-05-27 15:50:00,
2013-05-27 11:55:00,83.7,64.2,30.20,North,0,7.0,15.0,52,0.00,,,0.00,WeatherCatV1.02B3,2013-05-27 15:55:00,
2013-05-27 12:00:00,85.5,64.1,30.19,NNW,338,7.0,18.0,49,0.00,,,0.00,WeatherCatV1.02B3,2013-05-27 16:00:00,
2013-05-27 12:05:00,85.5,64.1,30.19,NNW,338,7.0,18.0,49,0.00,,,0.00,WeatherCatV1.02B3,2013-05-27 16:05:00,
2013-05-27 12:10:00,85.5,64.1,30.19,NNW,338,7.0,18.0,49,0.00,,,0.00,WeatherCatV1.02B3,2013-05-27 16:10:00,
2013-05-27 12:15:00,85.5,64.1,30.19,NNW,338,7.0,18.0,49,0.00,,,0.00,WeatherCatV1.02B3,2013-05-27 16:15:00,
2013-05-27 12:20:00,85.5,64.1,30.19,NNW,338,7.0,18.0,49,0.00,,,0.00,WeatherCatV1.02B3,2013-05-27 16:20:00,
2013-05-27 12:25:00,85.5,64.1,30.19,NNW,338,7.0,18.0,49,0.00,,,0.00,WeatherCatV1.02B3,2013-05-27 16:25:00,
2013-05-27 12:30:00,86.3,64.3,30.20,NNW,338,7.0,20.0,48,0.00,,,0.00,WeatherCatV1.02B3,2013-05-27 16:30:00,
2013-05-27 12:35:00,86.3,64.3,30.20,NNW,338,7.0,20.0,48,0.00,,,0.00,WeatherCatV1.02B3,2013-05-27 16:35:00,
2013-05-27 12:40:00,86.3,64.3,30.20,NNW,338,7.0,20.0,48,0.00,,,0.00,WeatherCatV1.02B3,2013-05-27 16:40:00,
2013-05-27 12:45:00,86.3,64.3,30.20,NNW,338,7.0,20.0,48,0.00,,,0.00,WeatherCatV1.02B3,2013-05-27 16:45:00,
2013-05-27 12:50:00,86.3,64.3,30.20,NNW,338,7.0,20.0,48,0.00,,,0.00,WeatherCatV1.02B3,2013-05-27 16:50:00,
2013-05-27 12:55:00,86.3,64.3,30.20,NNW,338,7.0,20.0,48,0.00,,,0.00,WeatherCatV1.02B3,2013-05-27 16:55:00,
2013-05-27 13:00:00,86.3,64.3,30.20,NNW,338,7.0,20.0,48,0.00,,,0.00,WeatherCatV1.02B3,2013-05-27 17:00:00,
2013-05-27 13:05:00,87.7,66.1,30.19,NNE,22,5.0,18.0,49,0.00,,,0.00,WeatherCatV1.02B3,2013-05-27 17:05:00,
2013-05-27 13:10:00,87.7,66.1,30.19,NNE,22,5.0,18.0,49,0.00,,,0.00,WeatherCatV1.02B3,2013-05-27 17:10:00,
2013-05-27 13:15:00,87.7,66.1,30.19,NNE,22,5.0,18.0,49,0.00,,,0.00,WeatherCatV1.02B3,2013-05-27 17:15:00,
2013-05-27 13:20:00,87.7,66.1,30.19,NNE,22,5.0,18.0,49,0.00,,,0.00,WeatherCatV1.02B3,2013-05-27 17:20:00,
2013-05-27 13:25:00,87.7,66.1,30.19,NNE,22,5.0,18.0,49,0.00,,,0.00,WeatherCatV1.02B3,2013-05-27 17:25:00,
2013-05-27 13:30:00,87.8,65.6,30.18,NNW,338,6.0,18.0,48,0.00,,,0.00,WeatherCatV1.02B3,2013-05-27 17:30:00,
2013-05-27 13:35:00,87.8,65.6,30.18,NNW,338,6.0,18.0,48,0.00,,,0.00,WeatherCatV1.02B3,2013-05-27 17:35:00,
2013-05-27 13:40:00,87.8,65.6,30.18,NNW,338,6.0,18.0,48,0.00,,,0.00,WeatherCatV1.02B3,2013-05-27 17:40:00,
2013-05-27 13:45:00,87.8,65.6,30.18,NNW,338,6.0,18.0,48,0.00,,,0.00,WeatherCatV1.02B3,2013-05-27 17:45:00,
2013-05-27 13:50:00,87.8,65.6,30.18,NNW,338,6.0,18.0,48,0.00,,,0.00,WeatherCatV1.02B3,2013-05-27 17:50:00,
2013-05-27 13:55:00,87.8,65.6,30.18,NNW,338,6.0,18.0,48,0.00,,,0.00,WeatherCatV1.02B3,2013-05-27 17:55:00,
2013-05-27 14:00:00,89.0,65.5,30.17,North,0,6.0,21.0,46,0.00,,,0.00,WeatherCatV1.02B3,2013-05-27 18:00:00,
2013-05-27 14:05:00,89.0,65.5,30.17,North,0,6.0,21.0,46,0.00,,,0.00,WeatherCatV1.02B3,2013-05-27 18:05:00,
2013-05-27 14:10:00,89.0,65.5,30.17,North,0,6.0,21.0,46,0.00,,,0.00,WeatherCatV1.02B3,2013-05-27 18:10:00,
2013-05-27 14:15:00,89.0,65.5,30.17,North,0,6.0,21.0,46,0.00,,,0.00,WeatherCatV1.02B3,2013-05-27 18:15:00,
2013-05-27 14:20:00,89.0,65.5,30.17,North,0,6.0,21.0,46,0.00,,,0.00,WeatherCatV1.02B3,2013-05-27 18:20:00,
2013-05-27 14:25:00,89.0,65.5,30.17,North,0,6.0,21.0,46,0.00,,,0.00,WeatherCatV1.02B3,2013-05-27 18:25:00,
2013-05-27 14:30:00,88.3,64.2,30.16,NNE,22,6.0,15.0,45,0.00,,,0.00,WeatherCatV1.02B3,2013-05-27 18:30:00,
2013-05-27 14:35:00,88.3,64.2,30.16,NNE,22,6.0,15.0,45,0.00,,,0.00,WeatherCatV1.02B3,2013-05-27 18:35:00,
2013-05-27 14:40:00,88.3,64.2,30.16,NNE,22,6.0,15.0,45,0.00,,,0.00,WeatherCatV1.02B3,2013-05-27 18:40:00,
2013-05-27 14:45:00,88.3,64.2,30.16,NNE,22,6.0,15.0,45,0.00,,,0.00,WeatherCatV1.02B3,2013-05-27 18:45:00,
2013-05-27 14:50:00,88.3,64.2,30.16,NNE,22,6.0,15.0,45,0.00,,,0.00,WeatherCatV1.02B3,2013-05-27 18:50:00,
2013-05-27 14:55:00,88.3,64.2,30.16,NNE,22,6.0,15.0,45,0.00,,,0.00,WeatherCatV1.02B3,2013-05-27 18:55:00,
2013-05-27 15:00:00,88.3,64.2,30.16,NNE,22,6.0,15.0,45,0.00,,,0.00,WeatherCatV1.02B3,2013-05-27 19:00:00,
2013-05-27 15:05:00,88.0,61.3,30.16,North,0,5.0,18.0,41,0.00,,,0.00,WeatherCatV1.02B3,2013-05-27 19:05:00,
2013-05-27 15:10:00,88.0,61.3,30.16,North,0,5.0,18.0,41,0.00,,,0.00,WeatherCatV1.02B3,2013-05-27 19:10:00,
2013-05-27 15:15:00,88.0,61.3,30.16,North,0,5.0,18.0,41,0.00,,,0.00,WeatherCatV1.02B3,2013-05-27 19:15:00,
2013-05-27 15:20:00,88.0,61.3,30.16,North,0,5.0,18.0,41,0.00,,,0.00,WeatherCatV1.02B3,2013-05-27 19:20:00,
2013-05-27 15:25:00,88.0,61.3,30.16,North,0,5.0,18.0,41,0.00,,,0.00,WeatherCatV1.02B3,2013-05-27 19:25:00,
2013-05-27 15:30:00,88.4,63.7,30.15,NNW,338,6.0,16.0,44,0.00,,,0.00,WeatherCatV1.02B3,2013-05-27 19:30:00,
2013-05-27 15:35:00,88.4,63.7,30.15,NNW,338,6.0,16.0,44,0.00,,,0.00,WeatherCatV1.02B3,2013-05-27 19:35:00,
2013-05-27 15:40:00,88.4,63.7,30.15,NNW,338,6.0,16.0,44,0.00,,,0.00,WeatherCatV1.02B3,2013-05-27 19:40:00,
2013-05-27 15:45:00,88.4,63.7,30.15,NNW,338,6.0,16.0,44,0.00,,,0.00,WeatherCatV1.02B3,2013-05-27 19:45:00,
2013-05-27 15:50:00,88.4,63.7,30.15,NNW,338,6.0,16.0,44,0.00,,,0.00,WeatherCatV1.02B3,2013-05-27 19:50:00,
2013-05-27 15:55:00,88.4,63.7,30.15,NNW,338,6.0,16.0,44,0.00,,,0.00,WeatherCatV1.02B3,2013-05-27 19:55:00,
2013-05-27 16:00:00,88.0,63.3,30.13,NNW,338,9.0,19.0,44,0.00,,,0.00,WeatherCatV1.02B3,2013-05-27 20:00:00,
2013-05-27 16:05:00,88.0,63.3,30.13,NNW,338,9.0,19.0,44,0.00,,,0.00,WeatherCatV1.02B3,2013-05-27 20:05:00,
2013-05-27 16:10:00,88.0,63.3,30.13,NNW,338,9.0,19.0,44,0.00,,,0.00,WeatherCatV1.02B3,2013-05-27 20:10:00,
2013-05-27 16:15:00,88.0,63.3,30.13,NNW,338,9.0,19.0,44,0.00,,,0.00,WeatherCatV1.02B3,2013-05-27 20:15:00,
2013-05-27 16:20:00,88.0,63.3,30.13,NNW,338,9.0,19.0,44,0.00,,,0.00,WeatherCatV1.02B3,2013-05-27 20:20:00,
2013-05-27 16:25:00,88.0,63.3,30.13,NNW,338,9.0,19.0,44,0.00,,,0.00,WeatherCatV1.02B3,2013-05-27 20:25:00,
2013-05-27 16:30:00,88.0,63.3,30.13,NNW,338,9.0,19.0,44,0.00,,,0.00,WeatherCatV1.02B3,2013-05-27 20:30:00,
2013-05-27 16:35:00,88.7,64.0,30.12,NNE,22,5.0,17.0,44,0.00,,,0.00,WeatherCatV1.02B3,2013-05-27 20:35:00,
2013-05-27 16:40:00,88.7,64.0,30.12,NNE,22,5.0,17.0,44,0.00,,,0.00,WeatherCatV1.02B3,2013-05-27 20:40:00,
2013-05-27 16:45:00,88.7,64.0,30.12,NNE,22,5.0,17.0,44,0.00,,,0.00,WeatherCatV1.02B3,2013-05-27 20:45:00,
2013-05-27 16:50:00,88.7,64.0,30.12,NNE,22,5.0,17.0,44,0.00,,,0.00,WeatherCatV1.02B3,2013-05-27 20:50:00,
2013-05-27 16:55:00,88.7,64.0,30.12,NNE,22,5.0,17.0,44,0.00,,,0.00,WeatherCatV1.02B3,2013-05-27 20:55:00,
2013-05-27 17:00:00,87.1,63.8,30.12,NNW,338,7.0,17.0,46,0.00,,,0.00,WeatherCatV1.02B3,2013-05-27 21:00:00,
2013-05-27 17:05:00,87.1,63.8,30.12,NNW,338,7.0,17.0,46,0.00,,,0.00,WeatherCatV1.02B3,2013-05-27 21:05:00,
2013-05-27 17:10:00,87.1,63.8,30.12,NNW,338,7.0,17.0,46,0.00,,,0.00,WeatherCatV1.02B3,2013-05-27 21:10:00,
2013-05-27 17:15:00,87.1,63.8,30.12,NNW,338,7.0,17.0,46,0.00,,,0.00,WeatherCatV1.02B3,2013-05-27 21:15:00,
2013-05-27 17:20:00,87.1,63.8,30.12,NNW,338,7.0,17.0,46,0.00,,,0.00,WeatherCatV1.02B3,2013-05-27 21:20:00,
2013-05-27 17:25:00,87.1,63.8,30.12,NNW,338,7.0,17.0,46,0.00,,,0.00,WeatherCatV1.02B3,2013-05-27 21:25:00,
2013-05-27 17:30:00,86.5,63.2,30.11,North,0,7.0,21.0,46,0.00,,,0.00,WeatherCatV1.02B3,2013-05-27 21:30:00,
2013-05-27 17:35:00,86.5,63.2,30.11,North,0,7.0,21.0,46,0.00,,,0.00,WeatherCatV1.02B3,2013-05-27 21:35:00,
2013-05-27 17:40:00,86.5,63.2,30.11,North,0,7.0,21.0,46,0.00,,,0.00,WeatherCatV1.02B3,2013-05-27 21:40:00,
2013-05-27 17:45:00,86.5,63.2,30.11,North,0,7.0,21.0,46,0.00,,,0.00,WeatherCatV1.02B3,2013-05-27 21:45:00,
2013-05-27 17:50:00,86.5,63.2,30.11,North,0,7.0,21.0,46,0.00,,,0.00,WeatherCatV1.02B3,2013-05-27 21:50:00,
2013-05-27 17:55:00,86.5,63.2,30.11,North,0,7.0,21.0,46,0.00,,,0.00,WeatherCatV1.02B3,2013-05-27 21:55:00,
2013-05-27 18:00:00,86.5,63.2,30.11,North,0,7.0,21.0,46,0.00,,,0.00,WeatherCatV1.02B3,2013-05-27 22:00:00,
2013-05-27 18:05:00,86.6,63.3,30.11,North,0,6.0,17.0,46,0.00,,,0.00,WeatherCatV1.02B3,2013-05-27 22:05:00,
2013-05-27 18:10:00,86.6,63.3,30.11,North,0,6.0,17.0,46,0.00,,,0.00,WeatherCatV1.02B3,2013-05-27 22:10:00,
2013-05-27 18:15:00,86.6,63.3,30.11,North,0,6.0,17.0,46,0.00,,,0.00,WeatherCatV1.02B3,2013-05-27 22:15:00,
2013-05-27 18:20:00,86.6,63.3,30.11,North,0,6.0,17.0,46,0.00,,,0.00,WeatherCatV1.02B3,2013-05-27 22:20:00,
2013-05-27 18:25:00,86.6,63.3,30.11,North,0,6.0,17.0,46,0.00,,,0.00,WeatherCatV1.02B3,2013-05-27 22:25:00,
2013-05-27 18:30:00,86.6,63.3,30.11,North,0,6.0,17.0,46,0.00,,,0.00,WeatherCatV1.02B3,2013-05-27 22:30:00,
2013-05-27 18:35:00,84.4,63.7,30.11,North,0,5.0,15.0,50,0.00,,,0.00,WeatherCatV1.02B3,2013-05-27 22:35:00,
2013-05-27 18:40:00,84.4,63.7,30.11,North,0,5.0,15.0,50,0.00,,,0.00,WeatherCatV1.02B3,2013-05-27 22:40:00,
2013-05-27 18:45:00,84.4,63.7,30.11,North,0,5.0,15.0,50,0.00,,,0.00,WeatherCatV1.02B3,2013-05-27 22:45:00,
2013-05-27 18:50:00,84.4,63.7,30.11,North,0,5.0,15.0,50,0.00,,,0.00,WeatherCatV1.02B3,2013-05-27 22:50:00,
2013-05-27 18:55:00,84.4,63.7,30.11,North,0,5.0,15.0,50,0.00,,,0.00,WeatherCatV1.02B3,2013-05-27 22:55:00,
2013-05-27 19:00:00,82.7,62.7,30.11,North,0,7.0,18.0,51,0.00,,,0.00,WeatherCatV1.02B3,2013-05-27 23:00:00,
2013-05-27 19:05:00,82.7,62.7,30.11,North,0,7.0,18.0,51,0.00,,,0.00,WeatherCatV1.02B3,2013-05-27 23:05:00,
2013-05-27 19:10:00,82.7,62.7,30.11,North,0,7.0,18.0,51,0.00,,,0.00,WeatherCatV1.02B3,2013-05-27 23:10:00,
2013-05-27 19:15:00,82.7,62.7,30.11,North,0,7.0,18.0,51,0.00,,,0.00,WeatherCatV1.02B3,2013-05-27 23:15:00,
2013-05-27 19:20:00,82.7,62.7,30.11,North,0,7.0,18.0,51,0.00,,,0.00,WeatherCatV1.02B3,2013-05-27 23:20:00,
2013-05-27 19:25:00,82.7,62.7,30.11,North,0,7.0,18.0,51,0.00,,,0.00,WeatherCatV1.02B3,2013-05-27 23:25:00,
2013-05-27 19:30:00,80.9,63.7,30.12,NNW,338,6.0,16.0,56,0.00,,,0.00,WeatherCatV1.02B3,2013-05-27 23:30:00,
2013-05-27 19:35:00,80.9,63.7,30.12,NNW,338,6.0,16.0,56,0.00,,,0.00,WeatherCatV1.02B3,2013-05-27 23:35:00,
2013-05-27 19:40:00,80.9,63.7,30.12,NNW,338,6.0,16.0,56,0.00,,,0.00,WeatherCatV1.02B3,2013-05-27 23:40:00,
2013-05-27 19:45:00,80.9,63.7,30.12,NNW,338,6.0,16.0,56,0.00,,,0.00,WeatherCatV1.02B3,2013-05-27 23:45:00,
2013-05-27 19:50:00,80.9,63.7,30.12,NNW,338,6.0,16.0,56,0.00,,,0.00,WeatherCatV1.02B3,2013-05-27 23:50:00,
2013-05-27 19:55:00,80.9,63.7,30.12,NNW,338,6.0,16.0,56,0.00,,,0.00,WeatherCatV1.02B3,2013-05-27 23:55:00,
2013-05-27 20:00:00,80.9,63.7,30.12,NNW,338,6.0,16.0,56,0.00,,,0.00,WeatherCatV1.02B3,2013-05-28 00:00:00,
2013-05-27 20:05:00,79.2,63.6,30.12,North,0,6.0,16.0,59,0.00,,,0.00,WeatherCatV1.02B3,2013-05-28 00:05:00,
2013-05-27 20:10:00,79.2,63.6,30.12,North,0,6.0,16.0,59,0.00,,,0.00,WeatherCatV1.02B3,2013-05-28 00:10:00,
2013-05-27 20:15:00,79.2,63.6,30.12,North,0,6.0,16.0,59,0.00,,,0.00,WeatherCatV1.02B3,2013-05-28 00:15:00,
2013-05-27 20:20:00,79.2,63.6,30.12,North,0,6.0,16.0,59,0.00,,,0.00,WeatherCatV1.02B3,2013-05-28 00:20:00,
2013-05-27 20:25:00,79.2,63.6,30.12,North,0,6.0,16.0,59,0.00,,,0.00,WeatherCatV1.02B3,2013-05-28 00:25:00,
2013-05-27 20:30:00,77.6,63.1,30.13,North,0,7.0,18.0,61,0.00,,,0.00,WeatherCatV1.02B3,2013-05-28 00:30:00,
2013-05-27 20:35:00,77.6,63.1,30.13,North,0,7.0,18.0,61,0.00,,,0.00,WeatherCatV1.02B3,2013-05-28 00:35:00,
2013-05-27 20:40:00,77.6,63.1,30.13,North,0,7.0,18.0,61,0.00,,,0.00,WeatherCatV1.02B3,2013-05-28 00:40:00,
2013-05-27 20:45:00,77.6,63.1,30.13,North,0,7.0,18.0,61,0.00,,,0.00,WeatherCatV1.02B3,2013-05-28 00:45:00,
2013-05-27 20:50:00,77.6,63.1,30.13,North,0,7.0,18.0,61,0.00,,,0.00,WeatherCatV1.02B3,2013-05-28 00:50:00,
2013-05-27 20:55:00,77.6,63.1,30.13,North,0,7.0,18.0,61,0.00,,,0.00,WeatherCatV1.02B3,2013-05-28 00:55:00,
2013-05-27 21:00:00,76.2,61.8,30.13,North,0,6.0,15.0,61,0.00,,,0.00,WeatherCatV1.02B3,2013-05-28 01:00:00,
2013-05-27 21:05:00,76.2,61.8,30.13,North,0,6.0,15.0,61,0.00,,,0.00,WeatherCatV1.02B3,2013-05-28 01:05:00,
2013-05-27 21:10:00,76.2,61.8,30.13,North,0,6.0,15.0,61,0.00,,,0.00,WeatherCatV1.02B3,2013-05-28 01:10:00,
2013-05-27 21:15:00,76.2,61.8,30.13,North,0,6.0,15.0,61,0.00,,,0.00,WeatherCatV1.02B3,2013-05-28 01:15:00,
2013-05-27 21:20:00,76.2,61.8,30.13,North,0,6.0,15.0,61,0.00,,,0.00,WeatherCatV1.02B3,2013-05-28 01:20:00,
2013-05-27 21:25:00,76.2,61.8,30.13,North,0,6.0,15.0,61,0.00,,,0.00,WeatherCatV1.02B3,2013-05-28 01:25:00,
2013-05-27 21:30:00,76.2,61.8,30.13,North,0,6.0,15.0,61,0.00,,,0.00,WeatherCatV1.02B3,2013-05-28 01:30:00,
2013-05-27 21:35:00,74.9,60.1,30.14,North,0,6.0,16.0,60,0.00,,,0.00,WeatherCatV1.02B3,2013-05-28 01:35:00,
2013-05-27 21:40:00,74.9,60.1,30.14,North,0,6.0,16.0,60,0.00,,,0.00,WeatherCatV1.02B3,2013-05-28 01:40:00,
2013-05-27 21:45:00,74.9,60.1,30.14,North,0,6.0,16.0,60,0.00,,,0.00,WeatherCatV1.02B3,2013-05-28 01:45:00,
2013-05-27 21:50:00,74.9,60.1,30.14,North,0,6.0,16.0,60,0.00,,,0.00,WeatherCatV1.02B3,2013-05-28 01:50:00,
2013-05-27 21:55:00,74.9,60.1,30.14,North,0,6.0,16.0,60,0.00,,,0.00,WeatherCatV1.02B3,2013-05-28 01:55:00,
2013-05-27 22:00:00,74.9,60.1,30.14,North,0,6.0,16.0,60,0.00,,,0.00,WeatherCatV1.02B3,2013-05-28 02:00:00,
2013-05-27 22:05:00,73.9,58.2,30.15,North,0,4.0,14.0,58,0.00,,,0.00,WeatherCatV1.02B3,2013-05-28 02:05:00,
2013-05-27 22:10:00,73.9,58.2,30.15,North,0,4.0,14.0,58,0.00,,,0.00,WeatherCatV1.02B3,2013-05-28 02:10:00,
2013-05-27 22:15:00,73.9,58.2,30.15,North,0,4.0,14.0,58,0.00,,,0.00,WeatherCatV1.02B3,2013-05-28 02:15:00,
2013-05-27 22:20:00,73.9,58.2,30.15,North,0,4.0,14.0,58,0.00,,,0.00,WeatherCatV1.02B3,2013-05-28 02:20:00,
2013-05-27 22:25:00,73.9,58.2,30.15,North,0,4.0,14.0,58,0.00,,,0.00,WeatherCatV1.02B3,2013-05-28 02:25:00,
2013-05-27 22:30:00,73.0,55.4,30.16,North,0,4.0,12.0,54,0.00,,,0.00,WeatherCatV1.02B3,2013-05-28 02:30:00,
2013-05-27 22:35:00,73.0,55.4,30.16,North,0,4.0,12.0,54,0.00,,,0.00,WeatherCatV1.02B3,2013-05-28 02:35:00,
2013-05-27 22:40:00,73.0,55.4,30.16,North,0,4.0,12.0,54,0.00,,,0.00,WeatherCatV1.02B3,2013-05-28 02:40:00,
2013-05-27 22:45:00,73.0,55.4,30.16,North,0,4.0,12.0,54,0.00,,,0.00,WeatherCatV1.02B3,2013-05-28 02:45:00,
2013-05-27 22:50:00,73.0,55.4,30.16,North,0,4.0,12.0,54,0.00,,,0.00,WeatherCatV1.02B3,2013-05-28 02:50:00,
2013-05-27 22:55:00,73.0,55.4,30.16,North,0,4.0,12.0,54,0.00,,,0.00,WeatherCatV1.02B3,2013-05-28 02:55:00,
2013-05-27 23:00:00,73.0,55.4,30.16,North,0,4.0,12.0,54,0.00,,,0.00,WeatherCatV1.02B3,2013-05-28 03:00:00,
2013-05-27 23:05:00,72.5,53.3,30.17,NNW,338,3.0,10.0,51,0.00,,,0.00,WeatherCatV1.02B3,2013-05-28 03:05:00,
2013-05-27 23:10:00,72.5,53.3,30.17,NNW,338,3.0,10.0,51,0.00,,,0.00,WeatherCatV1.02B3,2013-05-28 03:10:00,
2013-05-27 23:15:00,72.5,53.3,30.17,NNW,338,3.0,10.0,51,0.00,,,0.00,WeatherCatV1.02B3,2013-05-28 03:15:00,
2013-05-27 23:20:00,72.5,53.3,30.17,NNW,338,3.0,10.0,51,0.00,,,0.00,WeatherCatV1.02B3,2013-05-28 03:20:00,
2013-05-27 23:25:00,72.5,53.3,30.17,NNW,338,3.0,10.0,51,0.00,,,0.00,WeatherCatV1.02B3,2013-05-28 03:25:00,
2013-05-27 23:30:00,72.5,53.3,30.17,NNW,338,3.0,10.0,51,0.00,,,0.00,WeatherCatV1.02B3,2013-05-28 03:30:00,
2013-05-27 23:35:00,72.0,51.8,30.16,North,0,1.0,7.0,49,0.00,,,0.00,WeatherCatV1.02B3,2013-05-28 03:35:00,
2013-05-27 23:40:00,72.0,51.8,30.16,North,0,1.0,7.0,49,0.00,,,0.00,WeatherCatV1.02B3,2013-05-28 03:40:00,
2013-05-27 23:45:00,72.0,51.8,30.16,North,0,1.0,7.0,49,0.00,,,0.00,WeatherCatV1.02B3,2013-05-28 03:45:00,
2013-05-27 23:50:00,72.0,51.8,30.16,North,0,1.0,7.0,49,0.00,,,0.00,WeatherCatV1.02B3,2013-05-28 03:50:00,
2013-05-27 23:55:00,72.0,51.8,30.16,North,0,1.0,7.0,49,0.00,,,0.00,WeatherCatV1.02B3,2013-05-28 03:55:00,